[[{"header":{"parameterUnit":"m.s-1","parameterCategory":2,"la1":30.2991,"la2":30.254,"lo1":-89.0895,"lo2":-89.0444,"dy":0.0017,"dx":0.0017,"nx":28,"ny":28,"refTime":"2026-01-02T03:00:00:Z","depth":"0","parameterNumber":2,"parameterNumberName":"U-component_of_CURRENTS"},"data":[0,0,0,0,0,0,0,0,0,0,0,0,0,0,0,0,0,0,0,0,0,0,0,0,0,0,0,0,0,0,0,0,0,0,0,0,0,0,0,0,0,0,0,0,0,0,0,0,0,0,0,0,0,0,0,0,0,0,0.4182,0.4183,0,0.4284,0.4285,0.4287,0.432,0.4319,0.4319,0.4318,0.4335,0.4336,0.4338,0,0,0,0,0,0,0,0,0,0,0,0,0,0.4031,0.4034,0.4182,0.4183,0.4183,0.4284,0.4285,0.4287,0.432,0.4319,0.4318,0.4317,0.4335,0.4336,0.4338,0,0,0,0,0,0,0,0,0,0,0,0,0,0.4115,0.4035,0.4181,0.4209,0.4212,0.4283,0.4286,0.4288,0.4321,0.4319,0.4318,0.4317,0.4334,0.4336,0.4338,0.4374,0,0,0.4344,0.4344,0,0,0,0,0,0,0,0,0.411,0.4121,0.4204,0.4207,0.4211,0.4285,0.4239,0.4311,0.4321,0.4284,0.4318,0.4316,0.4309,0.4313,0.4342,0.4375,0.4375,0.4344,0.4345,0.4346,0.4346,0,0,0,0,0,0,0,0.4104,0.4117,0.4226,0.4205,0.4209,0.4222,0.4232,0.4253,0.4303,0.4287,0.4288,0.4294,0.431,0.434,0.4342,0.4376,0.4344,0.4345,0.4346,0.4347,0.4443,0.4444,0,0,0,0,0,0,0.4085,0.4112,0.4223,0.4229,0.4152,0.4225,0.4237,0.4265,0.4305,0.4309,0.4295,0.4295,0.4337,0.434,0.4342,0.4404,0.4346,0.4347,0.4348,0.4441,0.4443,0.4444,0,0,0,0,0,0,0.4082,0.4095,0.4219,0.4167,0.4184,0.4228,0.426,0.4268,0.4293,0.4311,0.4315,0.4309,0.4336,0.434,0.4367,0.4403,0.4348,0.435,0.4439,0.4442,0.4444,0.4514,0,0,0,0,0,0,0.4077,0.4094,0.4113,0.4167,0.4186,0.426,0.4261,0.4271,0.4296,0.4297,0.4325,0.4326,0.4336,0.4365,0.4369,0.4405,0.4351,0.4438,0.444,0.4443,0.451,0.4519,0.4526,0,0,0,0,0,0.4072,0.4104,0.4114,0.4127,0.421,0.426,0.4272,0.4301,0.4298,0.4317,0.4337,0.4325,0.4384,0.4368,0.4372,0.4409,0.4436,0.444,0.4443,0.4507,0.4517,0.4526,0,0,0,0,0,0,0.4043,0.4112,0.4123,0.4172,0.4209,0.4264,0.4286,0.4301,0.4337,0.4335,0.4345,0.4349,0.4394,0.4386,0.4367,0.4443,0.4408,0.4412,0.4455,0.4465,0.4472,0.4498,0.4353,0,0,0,0,0,0.4046,0.4097,0.4143,0.4184,0.4198,0.424,0.4264,0.4285,0.432,0.4335,0.4355,0.4377,0.4415,0.4423,0.4453,0.4488,0.4526,0.4514,0.4522,0.4528,0.4553,0.4635,0.4653,0.4455,0.4455,0.4455,0,0,0.4043,0.409,0.4115,0.4182,0.4212,0.425,0.4253,0.4293,0.4333,0.4329,0.4386,0.4409,0.4432,0.4486,0.4502,0.4479,0.4608,0.4532,0.4538,0.4559,0.4641,0.466,0.4678,0.4457,0.4457,0.4456,0,0,0.4057,0.4103,0.414,0.4174,0.4222,0.426,0.4266,0.432,0.4351,0.4403,0.4422,0.4467,0.4503,0.4548,0.4568,0.4633,0.4653,0.463,0.4686,0.4766,0.4784,0.4799,0.4889,0.4913,0.4625,0.4626,0.4626,0,0.4045,0.4109,0.4154,0.419,0.4225,0.426,0.4296,0.4341,0.4401,0.4441,0.4421,0.4533,0.4543,0.4637,0.4664,0.4655,0.4704,0.4649,0.4779,0.4795,0.481,0.4898,0.4923,0.4629,0.4629,0.4628,0.4628,0,0.408,0.4129,0.4152,0.4222,0.4263,0.4305,0.4361,0.4415,0.4449,0.4493,0.4586,0.4623,0.4687,0.47,0.4703,0.482,0.4824,0.4787,0.4758,0.4835,0.4922,0.4947,0.4635,0.4633,0.4632,0.4631,0,0,0.4058,0.4158,0.4164,0.4209,0.4287,0.4331,0.4408,0.4498,0.4576,0.4617,0.4735,0.4782,0.4802,0.4829,0.4847,0.4916,0.5065,0.49,0.4902,0.4998,0.5265,0.5205,0.5226,0.5052,0.5056,0.506,0.529,0,0.4071,0.4152,0.42,0.4282,0.4331,0.4399,0.4479,0.4564,0.4645,0.477,0.482,0.4924,0.4849,0.4911,0.4961,0.506,0.5131,0.5008,0.5171,0.5177,0.5119,0.5252,0.502,0.5199,0.5314,0.5318,0.5321,0,0.4088,0.4151,0.4227,0.4349,0.4374,0.4426,0.4586,0.4661,0.4823,0.4894,0.4986,0.5044,0.5169,0.5099,0.526,0.5186,0.5233,0.5286,0.5295,0.5233,0.5162,0.5138,0.524,0.5088,0.5359,0.5356,0.5353,0,0.4076,0.4175,0.4248,0.4283,0.4413,0.4469,0.4543,0.4692,0.4788,0.4992,0.5095,0.5216,0.5313,0.5385,0.5449,0.5383,0.5647,0.556,0.5549,0.5546,0.5378,0.5352,0.5356,0.5685,0.5685,0.5684,0.5684,0,0.4094,0.4152,0.4247,0.4286,0.4393,0.4471,0.4605,0.4714,0.4889,0.5029,0.5141,0.5289,0.539,0.5528,0.5556,0.5643,0.5716,0.5612,0.5616,0.5395,0.5369,0.5249,0.5202,0.5693,0.5691,0.5689,0.5688,0,0.4092,0.4145,0.4241,0.4358,0.4392,0.4473,0.4619,0.4729,0.4881,0.5088,0.5163,0.5386,0.556,0.5652,0.583,0.5777,0.5726,0.5882,0.5626,0.5594,0.5385,0.535,0.5256,0.5098,0.5917,0.5917,0.5917,0,0.4137,0.4167,0.4275,0.4331,0.4384,0.4493,0.4577,0.4722,0.4834,0.5136,0.524,0.5486,0.5629,0.5862,0.5857,0.593,0.5748,0.5756,0.5566,0.5391,0.5358,0.5161,0.5018,0.5389,0.5385,0.5381,0.5379,0,0.4232,0.4236,0.4308,0.4372,0.4453,0.4534,0.4646,0.4718,0.4915,0.5067,0.5285,0.5434,0.5654,0.5637,0.5743,0.5745,0.5475,0.5686,0.5566,0.5019,0.4745,0.4585,0.5239,0.5348,0.5351,0.5353,0.5355,0.5356,0.4341,0.4362,0.4411,0.4448,0.4516,0.4549,0.4563,0.4674,0.4797,0.4942,0.519,0.5271,0.5396,0.5494,0.5478,0.528,0.5272,0.5097,0.5103,0.4945,0.4671,0.5274,0.5334,0.5336,0.5339,0.5341,0.5343,0,0.452,0.4469,0.449,0.4514,0.4513,0.4537,0.4593,0.4547,0.4594,0.4739,0.486,0.4908,0.4927,0.4966,0.4904,0.4723,0.4478,0.4594,0.4243,0.4154,0.4752,0.4603,0.4429,0.4429,0.4429,0.4429,0.4429,0.4429,0.4648,0.465,0.4549,0.4493,0.4472,0.4389,0.4366,0.4293,0.4295,0.4233,0.419,0.4287,0.4516,0.4641,0.4457,0.4335,0.3986,0.3817,0.3829,0.4236,0.428,0.4322,0.4167,0.3904,0.3904,0.2993,0.2986,0.2981]},{"header":{"parameterUnit":"m.s-1","parameterCategory":2,"la1":30.2991,"la2":30.254,"lo1":-89.0895,"lo2":-89.0444,"dy":0.0017,"dx":0.0017,"nx":28,"ny":28,"refTime":"2026-01-02T03:00:00:Z","depth":"0","parameterNumber":3,"parameterNumberName":"V-component_of_CURRENTS"},"data":[0,0,0,0,0,0,0,0,0,0,0,0,0,0,0,0,0,0,0,0,0,0,0,0,0,0,0,0,0,0,0,0,0,0,0,0,0,0,0,0,0,0,0,0,0,0,0,0,0,0,0,0,0,0,0,0,0,0,0.0107,0.0107,0,0.0046,0.0045,0.0044,-0.0028,-0.0029,-0.0029,-0.003,-0.0171,-0.0174,-0.0177,0,0,0,0,0,0,0,0,0,0,0,0,0,0.0084,0.0085,0.0107,0.0107,0.0107,0.0046,0.0045,0.0043,-0.0028,-0.0029,-0.0029,-0.003,-0.017,-0.0174,-0.0178,0,0,0,0,0,0,0,0,0,0,0,0,0,0.0061,0.0086,0.0107,0.0068,0.0064,0.0046,0.0045,0.0043,-0.0028,-0.0029,-0.0029,-0.003,-0.0169,-0.0173,-0.0178,-0.0189,0,0,-0.0193,-0.0195,0,0,0,0,0,0,0,0,0.0063,0.0062,0.0074,0.007,0.0066,0.002,-0.0015,-0.0037,-0.0027,0.0002,-0.003,-0.0031,-0.011,-0.012,-0.0136,-0.0196,-0.0202,-0.0193,-0.0196,-0.0198,-0.0199,0,0,0,0,0,0,0,0.0065,0.0063,0.0078,0.0074,0.0069,0.0026,0.0022,-0.002,-0.0054,-0.0001,-0.0005,-0.0003,-0.0114,-0.0131,-0.014,-0.0204,-0.0193,-0.0197,-0.02,-0.0202,-0.0283,-0.0282,0,0,0,0,0,0,0.0088,0.0066,0.008,0.0077,0.0068,0.0028,0.0023,0.0032,-0.0052,-0.0063,-0.0002,-0.0006,-0.0122,-0.0134,-0.0145,-0.015,-0.0198,-0.0203,-0.0205,-0.0284,-0.0283,-0.0282,0,0,0,0,0,0,0.0088,0.009,0.0082,0.0073,0.007,0.0031,0.004,0.0031,0.0018,-0.0051,-0.0066,-0.0005,-0.0123,-0.0138,-0.0171,-0.0157,-0.0205,-0.0209,-0.0285,-0.0283,-0.0282,-0.0169,0,0,0,0,0,0,0.0087,0.009,0.0096,0.0075,0.0071,0.0086,0.0041,0.0031,0.0023,0.0017,-0.0058,-0.0072,-0.0125,-0.0163,-0.0176,-0.0164,-0.0213,-0.0286,-0.0284,-0.0283,-0.0174,-0.0164,-0.0156,0,0,0,0,0,0.0087,0.0115,0.0097,0.0099,0.0084,0.0088,0.0082,0.0046,0.0024,0.0028,-0.0022,-0.007,-0.0164,-0.0166,-0.0181,-0.0171,-0.0286,-0.0285,-0.0283,-0.0178,-0.0166,-0.0156,0,0,0,0,0,0,0.0113,0.0111,0.009,0.0116,0.0105,0.0078,0.0081,0.0058,0.0022,0.0013,-0.0059,-0.0076,-0.0102,-0.0149,-0.0149,-0.0191,-0.0234,-0.0235,-0.0149,-0.0138,-0.013,-0.009,-0.0217,0,0,0,0,0,0.0122,0.0137,0.0126,0.0143,0.0144,0.0112,0.0106,0.0087,0.0058,0.0041,-0.0008,-0.0063,-0.0107,-0.013,-0.0178,-0.0195,-0.0217,-0.02,-0.0191,-0.0183,-0.016,-0.0172,-0.0161,-0.0277,-0.0277,-0.0277,0,0,0.0137,0.0137,0.0144,0.0148,0.0134,0.0153,0.0106,0.0112,0.0122,0.0031,0.0025,-0.0034,-0.0105,-0.0127,-0.0143,-0.0164,-0.0162,-0.0181,-0.0174,-0.0155,-0.0169,-0.0157,-0.0147,-0.0276,-0.0276,-0.0276,0,0,0.0185,0.0176,0.0205,0.0206,0.0202,0.0186,0.0196,0.0176,0.016,0.0146,0.0084,0.0044,-0.0023,-0.0065,-0.0097,-0.0066,-0.0115,-0.0088,-0.0011,-0.0022,-0.0012,-0.0003,-0.0012,-0.0005,-0.0083,-0.0083,-0.0083,0,0.0199,0.0239,0.0214,0.0245,0.0258,0.0211,0.0252,0.0232,0.0202,0.0205,0.0159,0.0084,0.0009,-0.0,-0.0004,-0.0045,-0.0055,-0.0044,-0.0007,0.0,0.0007,-0.0004,0.0002,-0.0077,-0.0078,-0.0078,-0.0079,0,0.0271,0.0299,0.0322,0.0343,0.035,0.0379,0.036,0.0363,0.0332,0.031,0.0294,0.0202,0.016,0.0123,0.0059,0.0074,0.005,0.0007,-0.0027,0.0027,0.001,0.0015,-0.0069,-0.0071,-0.0073,-0.0074,0,0,0.0314,0.0364,0.037,0.0407,0.041,0.0434,0.0455,0.0473,0.0511,0.0447,0.0496,0.038,0.0331,0.0292,0.0214,0.0192,0.0205,0.0126,0.0122,0.0132,0.0194,0.0169,0.017,0.0174,0.0176,0.0177,0.0166,0,0.0377,0.047,0.0468,0.0549,0.0601,0.0576,0.0611,0.0615,0.0598,0.0631,0.0543,0.0546,0.0396,0.0392,0.0338,0.0257,0.0222,0.0213,0.0129,0.0127,0.011,0.0177,0.0147,0.0134,0.0169,0.017,0.0171,0,0.0449,0.0507,0.0605,0.0684,0.0704,0.0741,0.0806,0.0832,0.0846,0.0839,0.081,0.0749,0.0703,0.0578,0.045,0.0457,0.0329,0.0251,0.0248,0.0193,0.0111,0.0084,0.014,-0.0108,0.0177,0.0176,0.0176,0,0.0515,0.0604,0.0692,0.0716,0.0789,0.0834,0.0874,0.0901,0.0965,0.0993,0.1058,0.0955,0.0964,0.079,0.0585,0.053,0.0468,0.0368,0.0224,0.022,0.0163,0.0153,-0.0016,0.0279,0.0279,0.0279,0.0279,0,0.0598,0.0669,0.0738,0.0792,0.0915,0.0928,0.1055,0.1079,0.1159,0.1291,0.1178,0.1277,0.1023,0.0944,0.0696,0.0499,0.0542,0.0266,0.0227,0.02,0.0194,-0.0053,-0.0204,0.0279,0.0279,0.0279,0.0279,0,0.0672,0.0705,0.0825,0.0921,0.0954,0.1053,0.1194,0.1295,0.1352,0.1534,0.1569,0.1553,0.1462,0.1188,0.0953,0.0688,0.0325,0.0378,0.0367,0.0327,-0.007,-0.0212,-0.0417,-0.051,0.0219,0.0219,0.0218,0,0.0726,0.0789,0.0925,0.1004,0.1056,0.1193,0.1297,0.1384,0.1518,0.1725,0.1845,0.1831,0.1858,0.1498,0.1033,0.0626,0.0353,0.0318,0.0182,-0.0066,-0.0255,-0.0368,-0.044,0.0146,0.0145,0.0145,0.0144,0,0.0828,0.0866,0.0973,0.1125,0.1247,0.1407,0.1574,0.1717,0.1874,0.2062,0.2303,0.2357,0.2027,0.1625,0.1052,0.0743,0.013,0.0288,0.0033,-0.031,-0.0446,-0.0561,0.0125,0.0137,0.0137,0.0138,0.0138,0.0139,0.0907,0.0992,0.1104,0.1255,0.1409,0.161,0.1779,0.1995,0.2265,0.2581,0.2622,0.2738,0.2111,0.1337,0.0918,0.0077,0.0075,-0.0213,-0.0357,-0.0441,-0.056,0.012,0.0082,0.0082,0.0082,0.0083,0.0083,0,0.0979,0.1059,0.1211,0.1406,0.1598,0.1654,0.1952,0.2155,0.2515,0.2775,0.2993,0.2699,0.1963,0.1182,0.0062,-0.0482,-0.0686,-0.0783,-0.0975,-0.101,-0.0403,-0.0436,-0.059,-0.059,-0.059,-0.059,-0.0589,-0.0589,0.1023,0.1141,0.1208,0.1503,0.1668,0.1941,0.213,0.2449,0.268,0.2992,0.303,0.3022,0.2346,0.0448,-0.08,-0.1069,-0.1451,-0.1568,-0.1705,-0.1342,-0.1301,-0.1261,-0.1328,-0.1667,-0.1668,-0.2254,-0.226,-0.2265]}],[{"header":{"parameterUnit":"m.s-1","parameterCategory":2,"la1":30.2991,"la2":30.254,"lo1":-89.0895,"lo2":-89.0444,"dy":0.0017,"dx":0.0017,"nx":28,"ny":28,"refTime":"2026-01-02T03:00:00:Z","depth":"2","parameterNumber":2,"parameterNumberName":"U-component_of_CURRENTS"},"data":[0,0,0,0,0,0,0,0,0,0,0,0,0,0,0,0,0,0,0,0,0,0,0,0,0,0,0,0,0,0,0,0,0,0,0,0,0,0,0,0,0,0,0,0,0,0,0,0,0,0,0,0,0,0,0,0,0,0,0.3211,0.3211,0,0.3267,0.3268,0.3268,0.3283,0.3282,0.3282,0.3282,0.3336,0.3337,0.3338,0,0,0,0,0,0,0,0,0,0,0,0,0,0.3061,0.3064,0.321,0.3211,0.3212,0.3267,0.3268,0.3268,0.3283,0.3282,0.3282,0.3282,0.3335,0.3337,0.3339,0,0,0,0,0,0,0,0,0,0,0,0,0,0.312,0.3065,0.321,0.3228,0.3231,0.3267,0.3268,0.3269,0.3283,0.3282,0.3282,0.3282,0.3334,0.3337,0.3339,0.3355,0,0,0.3346,0.3347,0,0,0,0,0,0,0,0,0.3117,0.3125,0.3225,0.3227,0.323,0.3271,0.3235,0.3298,0.3283,0.326,0.3282,0.3282,0.3316,0.3319,0.3326,0.3358,0.336,0.3346,0.3347,0.3348,0.3349,0,0,0,0,0,0,0,0.3113,0.3123,0.323,0.3226,0.3229,0.3216,0.3224,0.3247,0.3285,0.3262,0.3264,0.3275,0.3316,0.3324,0.3327,0.3361,0.3346,0.3348,0.3349,0.335,0.3473,0.3475,0,0,0,0,0,0,0.3116,0.3119,0.3228,0.3232,0.3175,0.3219,0.3228,0.3255,0.3285,0.329,0.3275,0.3275,0.332,0.3325,0.3329,0.3402,0.3348,0.335,0.3352,0.3471,0.3473,0.3475,0,0,0,0,0,0,0.3112,0.3125,0.3226,0.3178,0.319,0.3223,0.3252,0.3256,0.3278,0.3296,0.33,0.3294,0.332,0.3326,0.3373,0.3402,0.3351,0.3353,0.3469,0.3472,0.3474,0.3514,0,0,0,0,0,0,0.3108,0.3124,0.3128,0.3179,0.3193,0.3252,0.3253,0.3258,0.3286,0.3287,0.3314,0.3318,0.332,0.337,0.3375,0.3404,0.3355,0.3466,0.347,0.3473,0.351,0.3518,0.3524,0,0,0,0,0,0.3103,0.3115,0.3128,0.314,0.3204,0.3253,0.3259,0.3278,0.3287,0.3297,0.3328,0.3318,0.3396,0.3373,0.3379,0.3409,0.3464,0.3469,0.3473,0.3507,0.3516,0.3524,0,0,0,0,0,0,0.3062,0.312,0.3134,0.3167,0.3208,0.3257,0.3277,0.3288,0.332,0.3332,0.3342,0.3349,0.3412,0.3404,0.3378,0.3458,0.3429,0.3435,0.3453,0.3462,0.3469,0.3518,0.3357,0,0,0,0,0,0.3054,0.3085,0.3135,0.317,0.3195,0.3239,0.3258,0.3277,0.3318,0.3332,0.3352,0.3384,0.3432,0.344,0.348,0.351,0.3544,0.3535,0.3542,0.3547,0.3593,0.366,0.3678,0.3489,0.3489,0.3489,0,0,0.305,0.3091,0.3105,0.3163,0.3208,0.3246,0.3251,0.3301,0.3332,0.3334,0.3387,0.3422,0.3453,0.3504,0.3527,0.3496,0.3617,0.3553,0.3557,0.3602,0.3667,0.3685,0.3701,0.3492,0.3492,0.3491,0,0,0.3062,0.3103,0.3124,0.3165,0.3228,0.3261,0.3279,0.3334,0.3358,0.3411,0.3436,0.3487,0.3534,0.3564,0.3586,0.3654,0.367,0.3662,0.3715,0.3778,0.3794,0.3809,0.3864,0.3884,0.3642,0.3642,0.3642,0,0.304,0.3099,0.3137,0.3178,0.3225,0.3273,0.3317,0.3348,0.3405,0.3445,0.3436,0.3566,0.357,0.3659,0.3685,0.3671,0.3717,0.3673,0.3788,0.3803,0.3818,0.3871,0.3892,0.3644,0.3644,0.3644,0.3643,0,0.3076,0.312,0.3155,0.3224,0.3267,0.3328,0.3384,0.342,0.3463,0.3505,0.3614,0.3644,0.3721,0.3721,0.3727,0.3836,0.3839,0.3804,0.3764,0.384,0.389,0.3911,0.3648,0.3647,0.3646,0.3646,0,0,0.304,0.3148,0.3164,0.3207,0.3307,0.335,0.3417,0.3501,0.3571,0.3622,0.3728,0.3796,0.3837,0.387,0.388,0.3926,0.4042,0.3918,0.392,0.397,0.4202,0.4111,0.4124,0.4034,0.4038,0.4041,0.4191,0,0.3061,0.3136,0.3196,0.3284,0.3332,0.341,0.3481,0.3558,0.3635,0.374,0.3804,0.3915,0.3884,0.3943,0.399,0.4061,0.4105,0.4007,0.4126,0.4131,0.4038,0.4148,0.3829,0.3929,0.4211,0.4215,0.4217,0,0.3073,0.313,0.3213,0.3332,0.3367,0.3428,0.3573,0.3641,0.3788,0.3853,0.3968,0.4043,0.4165,0.411,0.4262,0.4212,0.4227,0.425,0.4254,0.4182,0.408,0.3903,0.3957,0.4253,0.425,0.4247,0.4245,0,0.3037,0.3143,0.3217,0.3261,0.3396,0.3458,0.3541,0.3682,0.3773,0.3946,0.404,0.4189,0.4289,0.4355,0.4406,0.436,0.4563,0.448,0.4408,0.4401,0.4162,0.4126,0.458,0.4579,0.4579,0.4579,0.4578,0,0.3049,0.3108,0.3207,0.3259,0.3358,0.3458,0.3596,0.3686,0.3863,0.3989,0.4109,0.4225,0.4363,0.4481,0.4491,0.4541,0.4623,0.4474,0.4453,0.4164,0.4128,0.443,0.441,0.4584,0.4583,0.4582,0.4581,0,0.3028,0.3091,0.3173,0.3308,0.3346,0.3427,0.3611,0.3704,0.3872,0.4041,0.4111,0.4315,0.4463,0.4567,0.4696,0.4641,0.4689,0.4663,0.432,0.4256,0.4463,0.4444,0.4625,0.4624,0.4622,0.4621,0.462,0,0.3046,0.3079,0.3189,0.3235,0.331,0.343,0.3508,0.3684,0.3788,0.4064,0.4136,0.4363,0.4462,0.4636,0.4621,0.4658,0.4697,0.4345,0.4181,0.4518,0.4479,0.4461,0.4445,0.3877,0.387,0.3864,0.3859,0,0.3085,0.3111,0.3187,0.3233,0.331,0.3387,0.3517,0.3581,0.3791,0.3921,0.4088,0.4204,0.4402,0.4309,0.4383,0.434,0.4321,0.4229,0.4703,0.3907,0.3822,0.378,0.3786,0.3809,0.3814,0.3818,0.382,0.3822,0.3129,0.3144,0.3192,0.3234,0.3311,0.3321,0.3333,0.3449,0.3549,0.3693,0.3895,0.3954,0.4046,0.3998,0.3892,0.3823,0.4089,0.3892,0.3905,0.3926,0.3806,0.3722,0.3668,0.3672,0.3676,0.3679,0.3681,0,0.3121,0.3118,0.3173,0.3199,0.3218,0.3277,0.3317,0.3271,0.3287,0.3461,0.3569,0.3355,0.3333,0.3417,0.324,0.3239,0.3169,0.3104,0.2973,0.303,0.3078,0.2908,0.2536,0.2532,0.2528,0.2524,0,0,0.3111,0.3116,0.3092,0.3069,0.3108,0.3032,0.3006,0.2958,0.3002,0.2946,0.2975,0.3252,0.3374,0.2921,0.2863,0.2666,0.2822,0.2577,0.3513,0.3421,0.3464,0.3571,0.338,0,0,0,0,0]},{"header":{"parameterUnit":"m.s-1","parameterCategory":2,"la1":30.2991,"la2":30.254,"lo1":-89.0895,"lo2":-89.0444,"dy":0.0017,"dx":0.0017,"nx":28,"ny":28,"refTime":"2026-01-02T03:00:00:Z","depth":"2","parameterNumber":3,"parameterNumberName":"V-component_of_CURRENTS"},"data":[0,0,0,0,0,0,0,0,0,0,0,0,0,0,0,0,0,0,0,0,0,0,0,0,0,0,0,0,0,0,0,0,0,0,0,0,0,0,0,0,0,0,0,0,0,0,0,0,0,0,0,0,0,0,0,0,0,0,0.0121,0.0121,0,0.0063,0.0062,0.0061,0.0002,0.0001,0.0001,0.0001,-0.0114,-0.0116,-0.0119,0,0,0,0,0,0,0,0,0,0,0,0,0,0.0098,0.0099,0.0121,0.0121,0.012,0.0063,0.0062,0.0061,0.0002,0.0001,0.0001,0.0,-0.0113,-0.0116,-0.0119,0,0,0,0,0,0,0,0,0,0,0,0,0,0.0077,0.0099,0.0121,0.0087,0.0084,0.0063,0.0062,0.006,0.0002,0.0001,0.0001,0.0,-0.0112,-0.0115,-0.0119,-0.0131,0,0,-0.0131,-0.0133,0,0,0,0,0,0,0,0,0.0078,0.0078,0.0092,0.0089,0.0086,0.0042,0.0012,-0.0005,0.0002,0.0029,0.0001,-0.0,-0.0064,-0.0071,-0.0086,-0.0136,-0.0141,-0.0132,-0.0134,-0.0136,-0.0137,0,0,0,0,0,0,0,0.008,0.0079,0.0094,0.0092,0.0088,0.0046,0.0043,0.0008,-0.0017,0.0027,0.0023,0.0023,-0.0067,-0.0082,-0.0089,-0.0143,-0.0132,-0.0135,-0.0138,-0.0139,-0.0214,-0.0214,0,0,0,0,0,0,0.0101,0.0081,0.0096,0.0093,0.0085,0.0048,0.0044,0.0054,-0.0016,-0.0025,0.0024,0.0021,-0.0075,-0.0084,-0.0093,-0.0097,-0.0136,-0.014,-0.0142,-0.0215,-0.0214,-0.0214,0,0,0,0,0,0,0.01,0.0103,0.0098,0.0088,0.0085,0.005,0.0061,0.0053,0.0041,-0.0016,-0.0028,0.0021,-0.0076,-0.0088,-0.0115,-0.0103,-0.0141,-0.0145,-0.0215,-0.0215,-0.0214,-0.0114,0,0,0,0,0,0,0.01,0.0103,0.0111,0.009,0.0086,0.01,0.0062,0.0052,0.0044,0.0039,-0.0023,-0.0034,-0.0077,-0.0109,-0.0119,-0.0109,-0.0148,-0.0216,-0.0215,-0.0214,-0.0118,-0.011,-0.0103,0,0,0,0,0,0.01,0.0129,0.0112,0.0114,0.0101,0.0101,0.0095,0.0064,0.0045,0.0049,0.0006,-0.0032,-0.0112,-0.0111,-0.0123,-0.0114,-0.0216,-0.0215,-0.0214,-0.0121,-0.0112,-0.0104,0,0,0,0,0,0,0.0123,0.0125,0.0107,0.0134,0.012,0.0093,0.0095,0.0074,0.0043,0.0035,-0.0024,-0.0038,-0.0061,-0.01,-0.0098,-0.0135,-0.0172,-0.0173,-0.0097,-0.0088,-0.0081,-0.005,-0.0151,0,0,0,0,0,0.0133,0.0153,0.014,0.0158,0.0157,0.0124,0.0118,0.01,0.0074,0.0059,0.0018,-0.0029,-0.0067,-0.0086,-0.0127,-0.0141,-0.018,-0.0146,-0.0139,-0.0132,-0.0116,-0.0159,-0.0153,-0.0211,-0.0211,-0.0211,0,0,0.0145,0.0149,0.0157,0.0163,0.0147,0.0164,0.0118,0.0121,0.0131,0.0052,0.0048,-0.0006,-0.0067,-0.0086,-0.01,-0.0115,-0.0138,-0.0131,-0.0125,-0.0112,-0.0157,-0.0152,-0.0146,-0.0211,-0.0211,-0.0211,0,0,0.0189,0.0183,0.0215,0.0214,0.0208,0.0193,0.0201,0.0179,0.0164,0.0152,0.0096,0.0058,0.0001,-0.0034,-0.0062,-0.0039,-0.0101,-0.006,0.0005,-0.0036,-0.0032,-0.0028,-0.0072,-0.0073,-0.0054,-0.0053,-0.0053,0,0.0199,0.0242,0.0222,0.0252,0.0262,0.0216,0.0253,0.0234,0.0204,0.0201,0.0163,0.0085,0.0029,0.0012,0.0014,-0.0021,-0.0057,-0.0019,-0.0025,-0.0022,-0.002,-0.0066,-0.0068,-0.0048,-0.0049,-0.0049,-0.005,0,0.0268,0.0297,0.0318,0.0342,0.0348,0.0372,0.0354,0.035,0.0321,0.0296,0.0268,0.0189,0.0147,0.0115,0.0068,0.0059,0.0023,-0.0012,-0.004,-0.0008,-0.0059,-0.0063,-0.0041,-0.0043,-0.0045,-0.0046,0,0,0.0305,0.0358,0.0363,0.0398,0.0403,0.0424,0.0439,0.0448,0.0469,0.0408,0.0427,0.0337,0.0288,0.0254,0.0186,0.0144,0.0115,0.008,0.0075,0.0049,0.0021,-0.0024,-0.0033,0.0078,0.0078,0.0078,-0.0022,0,0.0362,0.0453,0.0456,0.0532,0.058,0.0552,0.0578,0.0573,0.0547,0.0551,0.0463,0.0446,0.0344,0.0328,0.0268,0.0162,0.0109,0.0145,-0.0017,-0.0021,-0.0055,-0.0037,-0.0001,-0.0089,-0.0026,-0.0027,-0.0027,0,0.0429,0.0486,0.0579,0.0651,0.0668,0.0698,0.0739,0.0759,0.0738,0.0718,0.0673,0.0602,0.0537,0.0444,0.0277,0.0305,0.0174,0.0078,0.0071,-0.0004,-0.0073,-0.0113,-0.0099,-0.0035,-0.0034,-0.0034,-0.0033,0,0.0488,0.0573,0.0658,0.068,0.0745,0.0777,0.0807,0.0808,0.0855,0.0833,0.0858,0.0743,0.0714,0.0538,0.0325,0.0304,0.0138,0.0082,-0.0085,-0.009,-0.0107,-0.0113,-0.0039,-0.0039,-0.0038,-0.0038,-0.0038,0,0.056,0.0626,0.0694,0.0744,0.0846,0.0858,0.0956,0.0959,0.0999,0.1081,0.0956,0.098,0.0737,0.0607,0.0384,0.0146,0.0177,-0.0065,-0.0114,-0.0073,-0.0075,-0.0067,-0.0069,-0.0042,-0.0041,-0.004,-0.004,0,0.0617,0.0656,0.0767,0.0853,0.0881,0.0959,0.1075,0.1152,0.1164,0.127,0.1278,0.1175,0.0999,0.0736,0.0459,0.0245,0.0006,-0.0094,-0.0032,-0.0072,-0.0213,-0.0208,-0.0283,-0.0286,-0.0288,-0.0289,-0.0291,0,0.0656,0.0716,0.085,0.0921,0.0964,0.1079,0.1166,0.1227,0.133,0.1392,0.146,0.1325,0.1242,0.081,0.0417,0.0033,-0.0015,-0.019,-0.0234,-0.0195,-0.0236,-0.0228,-0.0222,-0.0223,-0.0223,-0.0224,-0.0224,0,0.0726,0.077,0.0874,0.1019,0.1126,0.1276,0.141,0.1519,0.1615,0.1685,0.1745,0.1677,0.1277,0.0883,0.0356,0.0095,-0.0128,-0.0216,-0.0178,-0.0166,-0.0146,-0.0183,-0.0177,-0.0229,-0.0229,-0.0229,-0.0228,-0.0228,0.0781,0.0858,0.0982,0.1132,0.1266,0.1453,0.1601,0.1744,0.1906,0.203,0.1949,0.1855,0.141,0.073,0.0276,-0.0183,-0.0173,-0.0336,-0.0331,-0.0326,-0.03,-0.0285,-0.039,-0.039,-0.0391,-0.0391,-0.0391,0,0.0826,0.0921,0.1073,0.1274,0.1452,0.1509,0.1751,0.189,0.2084,0.2156,0.2174,0.1743,0.1294,0.08,0.011,-0.0317,-0.0333,-0.0439,-0.0366,-0.0358,-0.0352,-0.0325,-0.0424,-0.0425,-0.0426,-0.0427,0,0,0.085,0.0985,0.1077,0.138,0.1543,0.1786,0.194,0.2111,0.2207,0.2244,0.219,0.2062,0.1446,0.0945,0.0365,-0.0025,-0.0088,-0.0099,-0.0029,0.0133,0.0145,-0.0254,-0.02,0,0,0,0,0]}],[{"header":{"parameterUnit":"m.s-1","parameterCategory":2,"la1":30.2991,"la2":30.254,"lo1":-89.0895,"lo2":-89.0444,"dy":0.0017,"dx":0.0017,"nx":28,"ny":28,"refTime":"2026-01-02T03:00:00:Z","depth":"4","parameterNumber":2,"parameterNumberName":"U-component_of_CURRENTS"},"data":[0,0,0,0,0,0,0,0,0,0,0,0,0,0,0,0,0,0,0,0,0,0,0,0,0,0,0,0,0,0,0,0,0,0,0,0,0,0,0,0,0,0,0,0,0,0,0,0,0,0,0,0,0,0,0,0,0,0,0.1801,0.1802,0,0.1916,0.1917,0.1918,0.1977,0.1977,0.1978,0.1978,0.2107,0.211,0.2113,0,0,0,0,0,0,0,0,0,0,0,0,0,0.1657,0.1659,0.18,0.1802,0.1804,0.1916,0.1917,0.1918,0.1977,0.1977,0.1978,0.1978,0.2106,0.211,0.2113,0,0,0,0,0,0,0,0,0,0,0,0,0,0.1736,0.166,0.18,0.185,0.1856,0.1915,0.1917,0.1918,0.1976,0.1977,0.1978,0.1979,0.2105,0.2109,0.2114,0.2126,0,0,0.2127,0.2129,0,0,0,0,0,0,0,0,0.1731,0.174,0.1841,0.1847,0.1854,0.1937,0.1914,0.199,0.1976,0.1926,0.1978,0.1979,0.2054,0.2063,0.2076,0.2132,0.2138,0.2128,0.213,0.2132,0.2133,0,0,0,0,0,0,0,0.1726,0.1736,0.1841,0.1843,0.1851,0.1877,0.1888,0.1928,0.1981,0.193,0.1936,0.1956,0.2057,0.2071,0.2079,0.2139,0.2127,0.2131,0.2134,0.2136,0.2308,0.231,0,0,0,0,0,0,0.1719,0.1731,0.1838,0.1845,0.1799,0.1879,0.1891,0.1906,0.198,0.1994,0.1956,0.1959,0.2063,0.2074,0.2084,0.219,0.2132,0.2136,0.2139,0.2306,0.2308,0.231,0,0,0,0,0,0,0.1716,0.1727,0.1833,0.1795,0.1811,0.1881,0.1896,0.1908,0.1963,0.2,0.2013,0.2005,0.2064,0.2078,0.2153,0.2192,0.2138,0.2142,0.2304,0.2307,0.2309,0.2346,0,0,0,0,0,0,0.1711,0.1725,0.1744,0.1794,0.1813,0.1893,0.1897,0.1909,0.1974,0.198,0.2046,0.2056,0.2066,0.2146,0.2157,0.2197,0.2146,0.2301,0.2305,0.2308,0.2343,0.235,0.2356,0,0,0,0,0,0.1705,0.1722,0.1744,0.1758,0.1832,0.1895,0.1907,0.1956,0.1976,0.2007,0.2052,0.2056,0.2177,0.2152,0.2164,0.2206,0.23,0.2304,0.2308,0.234,0.2349,0.2356,0,0,0,0,0,0,0.1678,0.1732,0.1756,0.1792,0.1854,0.1908,0.1947,0.1979,0.2039,0.2058,0.2083,0.2097,0.2182,0.2189,0.2161,0.2267,0.2239,0.2245,0.2258,0.2267,0.2274,0.2282,0.2149,0,0,0,0,0,0.1679,0.1706,0.1768,0.1806,0.1838,0.1901,0.1938,0.1977,0.2032,0.2061,0.2102,0.215,0.2202,0.2231,0.2277,0.2333,0.2362,0.2368,0.2375,0.238,0.2397,0.248,0.2496,0.2325,0.2324,0.2324,0,0,0.1679,0.1718,0.1733,0.1803,0.1856,0.1903,0.1926,0.2001,0.2046,0.2065,0.2144,0.2187,0.2227,0.2292,0.2329,0.2306,0.2443,0.2386,0.239,0.2404,0.2487,0.2503,0.2518,0.2327,0.2327,0.2326,0,0,0.1689,0.1734,0.1758,0.181,0.1898,0.1936,0.1966,0.2043,0.2088,0.2164,0.2193,0.2259,0.233,0.2363,0.2387,0.2462,0.2486,0.248,0.2514,0.2595,0.261,0.2623,0.2671,0.2689,0.2472,0.2472,0.2472,0,0.169,0.1732,0.178,0.1825,0.1874,0.1952,0.2,0.2055,0.2145,0.2193,0.2198,0.2333,0.2361,0.2446,0.2468,0.2478,0.2523,0.2475,0.2604,0.2618,0.2631,0.2678,0.2696,0.2474,0.2474,0.2474,0.2474,0,0.1707,0.1761,0.1791,0.1863,0.1917,0.1983,0.206,0.2129,0.2192,0.2245,0.2362,0.2408,0.2491,0.2503,0.2509,0.2618,0.2619,0.2611,0.258,0.2651,0.2695,0.2714,0.2478,0.2477,0.2476,0.2476,0,0,0.1656,0.1775,0.179,0.1842,0.195,0.1997,0.2086,0.2187,0.2271,0.2347,0.245,0.2524,0.2574,0.2606,0.2631,0.2684,0.2801,0.269,0.2693,0.2732,0.2977,0.2776,0.2777,0.2827,0.2831,0.2834,0.2966,0,0.1665,0.1745,0.1802,0.1896,0.195,0.2048,0.2127,0.223,0.2328,0.2444,0.2516,0.263,0.2607,0.2675,0.2725,0.2802,0.2856,0.2765,0.2908,0.2912,0.272,0.2794,0.2846,0.298,0.2984,0.2987,0.299,0,0.1656,0.1719,0.1802,0.1938,0.1972,0.2041,0.2199,0.2279,0.2447,0.2533,0.2649,0.273,0.2844,0.2815,0.2963,0.2915,0.2959,0.2989,0.2995,0.2809,0.2746,0.2899,0.3024,0.3021,0.3019,0.3016,0.3014,0,0.1592,0.172,0.179,0.1834,0.1986,0.2062,0.2154,0.2316,0.2416,0.2614,0.2719,0.2854,0.296,0.3035,0.3099,0.3066,0.3244,0.3204,0.3056,0.3042,0.3167,0.3151,0.3315,0.3315,0.3314,0.3314,0.3314,0,0.1569,0.1634,0.1781,0.1821,0.1933,0.2046,0.2189,0.2308,0.2497,0.2616,0.2772,0.2885,0.303,0.314,0.3164,0.3162,0.3305,0.308,0.3071,0.3176,0.3161,0.318,0.3162,0.3319,0.3318,0.3317,0.3316,0,0.1497,0.1592,0.1678,0.1842,0.191,0.1987,0.2204,0.2296,0.2496,0.2664,0.2743,0.2963,0.3095,0.3195,0.3331,0.3234,0.326,0.3225,0.3338,0.3331,0.2987,0.2971,0.3072,0.3066,0.3061,0.3057,0.3053,0,0.1461,0.1502,0.167,0.1724,0.1812,0.1957,0.2055,0.2274,0.2372,0.2676,0.2734,0.2963,0.3076,0.3105,0.3212,0.3248,0.3205,0.3191,0.3069,0.2985,0.2968,0.2959,0.2949,0.3045,0.3044,0.3043,0.3042,0,0.1384,0.1455,0.1528,0.1632,0.1739,0.1851,0.2012,0.2088,0.2328,0.2538,0.2683,0.2779,0.2918,0.2995,0.3049,0.3061,0.318,0.3138,0.3147,0.3032,0.2955,0.294,0.2936,0.3024,0.3027,0.3029,0.3029,0,0.1316,0.1343,0.1429,0.1526,0.1634,0.1703,0.1819,0.1952,0.2089,0.2426,0.2467,0.2697,0.2895,0.2901,0.295,0.2947,0.2893,0.278,0.2806,0.2826,0.2679,0.2541,0.2491,0,0,0,0,0,0.1208,0.1233,0.1314,0.1398,0.1496,0.1568,0.176,0.1879,0.2136,0.2175,0.2322,0.2442,0.2549,0.2666,0.2613,0.282,0.2885,0.2744,0.2763,0.2929,0.2949,0.2795,0,0,0,0,0,0,0.1122,0.1182,0.1258,0.1268,0.1308,0.14,0.1519,0.1698,0.174,0.2011,0.2084,0.2279,0.2414,0.255,0.2561,0.2592,0.255,0.2885,0.2879,0.2918,0.2936,0.2952,0.2801,0,0,0,0,0]},{"header":{"parameterUnit":"m.s-1","parameterCategory":2,"la1":30.2991,"la2":30.254,"lo1":-89.0895,"lo2":-89.0444,"dy":0.0017,"dx":0.0017,"nx":28,"ny":28,"refTime":"2026-01-02T03:00:00:Z","depth":"4","parameterNumber":3,"parameterNumberName":"V-component_of_CURRENTS"},"data":[0,0,0,0,0,0,0,0,0,0,0,0,0,0,0,0,0,0,0,0,0,0,0,0,0,0,0,0,0,0,0,0,0,0,0,0,0,0,0,0,0,0,0,0,0,0,0,0,0,0,0,0,0,0,0,0,0,0,0.0151,0.015,0,0.0109,0.0109,0.0108,0.0074,0.0074,0.0074,0.0074,-0.0002,-0.0004,-0.0005,0,0,0,0,0,0,0,0,0,0,0,0,0,0.0131,0.0132,0.0151,0.015,0.015,0.011,0.0109,0.0108,0.0074,0.0074,0.0074,0.0074,-0.0001,-0.0003,-0.0006,0,0,0,0,0,0,0,0,0,0,0,0,0,0.0118,0.0132,0.0151,0.013,0.0128,0.011,0.0109,0.0108,0.0074,0.0074,0.0074,0.0073,-0.0,-0.0003,-0.0006,-0.0018,0,0,-0.0014,-0.0016,0,0,0,0,0,0,0,0,0.0119,0.0119,0.0133,0.0131,0.0129,0.0099,0.0074,0.0065,0.0074,0.0092,0.0074,0.0073,0.003,0.0025,0.0015,-0.0022,-0.0025,-0.0015,-0.0016,-0.0017,-0.0018,0,0,0,0,0,0,0,0.012,0.012,0.0132,0.0133,0.013,0.0099,0.0097,0.0072,0.0061,0.0091,0.0089,0.0088,0.0028,0.0018,0.0013,-0.0026,-0.0015,-0.0017,-0.0019,-0.002,-0.0074,-0.0074,0,0,0,0,0,0,0.0133,0.0121,0.0133,0.0131,0.0126,0.01,0.0098,0.0107,0.0062,0.0056,0.0088,0.0086,0.0023,0.0016,0.001,0.0012,-0.0017,-0.002,-0.0022,-0.0074,-0.0074,-0.0074,0,0,0,0,0,0,0.0133,0.0135,0.0135,0.0126,0.0124,0.0101,0.0111,0.0106,0.01,0.006,0.0053,0.0088,0.0022,0.0014,-0.0002,0.0008,-0.0021,-0.0024,-0.0074,-0.0074,-0.0074,0.0002,0,0,0,0,0,0,0.0133,0.0136,0.0143,0.0128,0.0125,0.0135,0.0111,0.0106,0.0101,0.0098,0.0058,0.005,0.0022,0.0002,-0.0005,0.0003,-0.0026,-0.0075,-0.0074,-0.0074,-0.0001,0.0005,0.001,0,0,0,0,0,0.0133,0.0155,0.0144,0.0145,0.0138,0.0136,0.0132,0.0112,0.0101,0.0104,0.0078,0.0052,-0.0001,0.0001,-0.0008,-0.0,-0.0075,-0.0074,-0.0074,-0.0003,0.0004,0.001,0,0,0,0,0,0,0.015,0.0153,0.0141,0.0162,0.0151,0.0131,0.0134,0.0119,0.01,0.0098,0.0058,0.0049,0.0035,0.0007,0.0009,-0.0016,-0.0044,-0.0045,0.0013,0.0019,0.0025,0.0041,-0.0028,0,0,0,0,0,0.0157,0.0175,0.0164,0.0179,0.0177,0.0154,0.015,0.0138,0.0121,0.0113,0.0086,0.0055,0.003,0.0018,-0.001,-0.002,-0.0064,-0.0023,-0.0018,-0.0013,-0.0007,-0.0064,-0.0063,-0.0072,-0.0072,-0.0072,0,0,0.0166,0.0171,0.0179,0.0183,0.0172,0.0184,0.0151,0.0153,0.0162,0.0107,0.011,0.0072,0.003,0.0019,0.001,-0.0002,-0.0035,-0.0012,-0.0008,-0.0004,-0.0063,-0.0063,-0.0062,-0.0072,-0.0072,-0.0072,0,0,0.02,0.0199,0.0224,0.0222,0.0217,0.0207,0.0212,0.0196,0.0188,0.0182,0.0144,0.0117,0.0082,0.0055,0.0036,0.0053,-0.0006,0.004,0.0083,0.0028,0.0028,0.0028,-0.0029,-0.0035,0.0045,0.0045,0.0045,0,0.0206,0.024,0.0228,0.025,0.0257,0.0225,0.025,0.0239,0.0219,0.0213,0.0194,0.0135,0.0101,0.0082,0.0089,0.0066,0.0022,0.0066,0.0035,0.0034,0.0032,-0.0026,-0.0033,0.0049,0.0048,0.0048,0.0048,0,0.0257,0.028,0.0296,0.0317,0.0322,0.0338,0.0326,0.0324,0.0306,0.0287,0.0262,0.0209,0.0174,0.0156,0.0129,0.0104,0.0071,0.0048,0.0023,0.0038,-0.0025,-0.0034,0.0054,0.0053,0.0052,0.0051,0,0,0.0281,0.0324,0.0328,0.0353,0.0361,0.0375,0.0389,0.0391,0.04,0.036,0.0359,0.0307,0.0267,0.0243,0.0196,0.0148,0.0099,0.0101,0.0096,0.0052,-0.003,-0.0043,-0.0055,0.0067,0.0066,0.0065,-0.007,0,0.032,0.0385,0.0393,0.0449,0.048,0.0464,0.0484,0.0477,0.0457,0.0446,0.0378,0.0359,0.0304,0.0288,0.0232,0.0133,0.0078,0.0137,-0.0044,-0.005,-0.0058,-0.0065,0.0062,-0.0077,-0.0079,-0.0081,-0.0082,0,0.0366,0.0406,0.0473,0.0525,0.0536,0.0563,0.0586,0.0599,0.0569,0.055,0.0506,0.0448,0.0382,0.0331,0.0168,0.0206,0.0099,0.0014,0.0006,-0.0037,-0.0079,-0.0098,-0.01,-0.0098,-0.0097,-0.0096,-0.0095,0,0.0397,0.0462,0.0523,0.054,0.0588,0.0614,0.0637,0.063,0.0655,0.0617,0.0617,0.0516,0.0471,0.0327,0.0156,0.0159,-0.0038,-0.0059,-0.0176,-0.0179,-0.016,-0.0158,-0.0179,-0.0179,-0.0179,-0.0178,-0.0178,0,0.0437,0.0485,0.0546,0.0579,0.0653,0.0665,0.0729,0.0728,0.0739,0.0768,0.0678,0.0657,0.0467,0.0333,0.0171,-0.003,-0.0031,-0.0171,-0.0214,-0.0125,-0.0118,-0.0167,-0.0164,-0.0183,-0.0182,-0.0181,-0.018,0,0.046,0.0497,0.0575,0.0645,0.0673,0.0727,0.0812,0.0856,0.0848,0.0881,0.0876,0.0761,0.0582,0.0376,0.013,-0.0002,-0.0198,-0.0272,-0.0163,-0.0197,-0.0307,-0.0298,-0.0411,-0.0413,-0.0414,-0.0415,-0.0416,0,0.0475,0.0518,0.0628,0.0683,0.0721,0.0806,0.0872,0.091,0.0956,0.0938,0.0951,0.08,0.0694,0.0345,0.0115,-0.0202,-0.0247,-0.035,-0.0327,-0.0301,-0.0331,-0.032,-0.031,-0.0418,-0.0419,-0.0419,-0.0419,0,0.0502,0.0545,0.0619,0.0735,0.0821,0.0924,0.1011,0.1053,0.1088,0.1084,0.1015,0.0835,0.0626,0.0349,0.0099,-0.0128,-0.0281,-0.0365,-0.0363,-0.0342,-0.0311,-0.0337,-0.0325,-0.0424,-0.0423,-0.0423,-0.0422,0,0.0536,0.0584,0.0683,0.0792,0.0897,0.1,0.105,0.11,0.1144,0.1117,0.1084,0.0861,0.0729,0.0384,0.0153,-0.0071,-0.0128,-0.0195,-0.0203,-0.0201,-0.0101,-0.0028,-0.0091,0,0,0,0,0,0.057,0.0631,0.0727,0.0853,0.0959,0.1027,0.1126,0.1164,0.119,0.116,0.1128,0.0935,0.0589,0.0431,0.0206,0.0112,-0.0177,-0.0161,-0.0261,-0.0449,-0.0444,-0.0364,0,0,0,0,0,0,0.0596,0.0686,0.0734,0.0883,0.0973,0.1101,0.1169,0.1194,0.117,0.1152,0.0972,0.0881,0.0543,0.0726,0.0206,0.0134,0.004,-0.0323,-0.0328,-0.0453,-0.0448,-0.0443,-0.0359,0,0,0,0,0]}]]